Location: Campolattaro
(41.2833°N, 14.7333°E)
Time: 17:22:15
(UTC+00:00)

Cosmos 1346 Rocket - Pass Details

Date: 19 May 2025
Orbit: 485 x 499 km, 81.2° (Epoch: 17 June)

Event Time Altitude Azimuth Distance (km) Brightness Sun altitude
Rises 19:33:42 0° 0° (N) 2,579 6.9 -12.7°
Reaches altitude 10° 19:36:00 10° 11° (N) 1,690 5.7 -13.0°
Maximum altitude 19:39:19 31° 75° (ENE) 885 3.6 -13.5°
Enters shadow 19:40:44 23° 116° (ESE) 1,076 3.7 -13.7°
